SCP
1 1 2 3 3 3 4 3 3 3 3 3 3 4 4 4 3 2 2 2 2 1 1 1 1 1 1 1 1 1 1 1 1 1 1 1 1 1 1 1 1 1 1
1 2 2 3 3 3 3 3 3 3 3 2 3 3 3 3 3 2 2 2 2 2 1 1 1 1 1 1 1 1 1 1 1 1 1 1 1 1 1 1 1 1 1
2 2 3 3 3 3 3 3 3 3 3 2 2 2 2 3 3 3 2 2 2 2 1 1 1 1 1 1 1 1 1 2 2 1 1 1 1 1 1 1 1 1 1
2 3 4 4 3 3 3 3 3 3 3 2 2 2 2 2 3 3 2 2 2 2 1 1 1 1 1 1 1 1 1 1 1 1 1 1 1 1 1 1 1 1 1
2 3 4 4 4 3 3 3 3 3 3 2 2 2 2 2 3 3 3 2 2 2 2 1 1 1 1 1 1 1 1 1 1 1 1 1 1 1 2 2 1 1 1
3 3 4 4 4 3 3 3 3 3 3 3 2 2 3 3 3 3 3 3 3 3 2 2 1 1 1 1 1 1 1 1 1 1 1 1 1 2 2 2 2 1 1
3 4 5 5 4 3 3 3 3 3 3 3 3 2 3 3 3 3 3 3 3 3 2 2 2 2 2 1 1 1 1 1 1 1 1 1 1 2 2 2 2 1 1
4 5 6 5 5 4 4 3 3 3 3 3 3 3 3 3 3 3 3 3 3 2 2 2 2 2 2 2 1 1 1 1 1 1 1 1 1 2 2 2 2 1 1
4 5 6 6 5 4 4 4 4 4 3 3 3 3 3 3 3 3 3 3 2 2 2 2 2 2 2 2 1 1 1 1 1 1 1 1 1 1 2 2 2 1 1
5 5 6 6 5 5 5 4 4 4 4 3 3 3 3 2 2 2 3 2 2 1 1 1 1 1 1 1 1 1 1 1 1 1 1 1 1 1 2 2 2 1 1
5 5 6 6 6 5 5 4 4 4 3 3 3 3 3 3 2 2 2 2 1 1 1 1 1 1 1 1 1 1 1 1 1 1 1 1 1 1 2 2 2 2 1
5 5 6 6 6 6 5 4 3 3 3 3 3 3 3 3 2 2 2 1 1 1 1 1 1 1 1 1 1 1 1 1 1 1 1 1 1 1 2 2 2 2 2
5 5 6 6 6 5 4 3 3 3 3 3 3 3 4 3 3 2 2 2 1 1 2 2 2 2 1 1 1 1 1 1 1 1 1 1 2 1 2 2 2 2 2
6 6 6 5 4 4 3 3 3 3 3 4 4 4 4 5 3 2 2 2 2 2 2 1 1 1 1 1 1 1 1 1 1 1 1 1 1 1 1 2 2 2 2
7 7 6 4 4 3 3 3 3 3 3 4 4 4 5 5 4 4 3 3 2 2 2 1 1 1 1 1 1 1 1 1 1 1 1 1 1 1 1 1 2 2 2
7 7 6 4 3 3 2 2 2 3 3 4 4 4 4 5 5 5 4 3 2 2 1 1 1 1 1 1 1 1 1 1 1 1 1 1 1 1 1 1 1 2 2
7 7 6 4 3 2 2 2 2 2 3 3 3 3 3 4 4 4 4 3 2 2 1 1 1 1 1 1 1 1 1 1 1 1 1 1 1 1 1 1 1 2 2
6 7 6 4 3 3 2 2 2 2 2 2 3 3 3 3 3 4 3 3 2 2 2 1 1 1 1 1 1 1 0 0 0 0 0 0 0 1 1 1 1 2 2
5 6 6 5 4 4 4 4 3 3 2 2 2 2 3 3 3 3 3 2 2 2 2 2 1 1 1 1 1 0 0 0 0 0 0 0 0 0 0 1 1 2 2
5 5 5 5 6 7 7 6 5 4 4 3 2 2 2 3 3 3 3 3 2 2 3 2 2 1 1 1 1 0 0 0 0 0 0 0 0 0 0 0 1 1 2
5 5 5 6 7 9 10 9 8 7 5 4 3 2 2 3 3 3 3 3 3 3 3 2 2 1 1 1 0 0 0 0 0 1 0 0 0 0 0 0 0 1 1
6 6 6 6 7 8 9 10 9 8 6 5 4 3 3 3 3 3 3 3 3 2 2 2 1 1 1 1 0 0 0 0 0 0 0 0 0 0 0 0 0 0 0
7 7 6 6 6 6 8 9 8 7 6 4 4 3 3 3 3 3 3 2 2 2 2 2 2 1 1 1 0 0 0 0 0 0 0 0 0 0 0 0 0 0 0
8 8 7 6 5 6 7 8 7 6 5 4 3 3 3 3 3 3 3 2 2 2 2 2 2 2 1 1 1 0 0 0 0 0 0 0 0 0 0 0 0 0 0
8 8 7 6 5 6 7 7 7 6 5 4 4 3 3 3 3 3 2 2 2 2 5 7 5 2 2 1 1 0 0 0 0 0 0 0 0 0 0 0 1 0 0
7 7 6 6 6 6 6 7 7 7 6 5 4 4 4 3 3 2 2 1 2 2 9 15 8 2 2 1 1 1 0 0 0 0 0 0 0 0 0 0 1 0 0
Wind_Speed
7 10 15 15 15 15 15 14 14 14 13 13 13 13 13 13 13 13 12 12 11 10 9 8 7 7 6 6 6 6 6 7 7 7 8 7 8 8 8 8 8 7 10
12 11 16 16 16 15 15 14 14 13 13 13 13 12 12 12 12 11 11 10 9 9 8 7 6 6 5 5 5 5 5 5 5 5 5 6 7 7 7 8 9 6 10
14 11 14 16 16 16 15 14 14 13 13 12 12 12 11 11 11 10 10 9 8 8 7 6 5 5 4 4 3 3 3 3 4 4 4 2 3 5 7 8 10 10 9
14 10 12 17 17 16 15 14 14 13 13 12 12 11 11 10 10 9 9 8 7 7 6 5 5 4 3 3 2 2 2 2 2 2 2 2 2 5 7 9 10 10 10
11 9 12 18 17 16 15 14 13 13 13 12 11 11 10 10 9 8 8 7 6 6 5 5 4 3 3 2 1 1 1 1 1 1 1 2 2 5 8 9 10 10 10
11 9 11 17 17 16 15 14 13 13 12 11 11 10 9 9 9 8 7 6 5 5 5 4 3 3 3 2 2 2 2 2 2 0 1 2 3 6 9 10 10 10 10
10 8 10 15 16 16 15 14 13 12 11 11 10 10 9 8 7 7 6 6 5 5 4 4 3 3 3 3 3 4 4 3 1 1 1 2 3 7 9 9 10 10 10
12 9 8 14 15 15 14 13 12 12 11 10 9 9 8 7 7 7 6 5 5 5 5 5 4 4 3 4 4 5 5 5 2 1 2 2 4 7 8 9 9 10 10
11 9 7 8 11 13 14 13 12 11 11 10 9 9 8 7 7 7 6 5 5 5 5 5 5 4 4 4 5 6 5 5 2 2 3 2 4 7 8 9 8 8 9
9 8 7 6 6 6 8 12 13 12 11 10 10 9 8 8 7 7 6 6 6 6 6 6 5 5 5 5 6 6 6 4 2 2 2 3 6 8 8 8 8 9 9
9 7 8 7 6 6 6 9 10 11 10 9 8 9 7 3 3 3 4 5 6 6 6 6 5 5 5 6 6 7 5 2 2 2 2 5 7 8 9 9 8 8 9
10 8 7 8 7 6 6 5 4 5 5 5 4 4 3 3 2 3 4 6 5 5 5 6 6 5 4 2 4 6 2 2 2 2 3 7 7 8 9 9 9 9 9
10 9 8 8 7 6 4 4 3 2 3 4 4 4 3 3 2 2 1 2 3 3 3 3 3 2 2 2 2 2 3 2 2 2 3 6 7 7 8 8 9 9 9
9 8 8 8 7 6 5 4 4 3 3 3 4 5 4 2 2 2 2 2 2 1 2 2 2 2 2 3 3 3 3 2 3 2 4 8 8 8 8 9 9 9 9
9 8 8 8 7 6 5 4 5 4 4 4 3 4 4 3 3 2 2 2 2 2 2 2 2 2 2 3 3 3 3 3 3 3 3 7 8 8 8 9 9 9 10
8 8 7 8 7 6 5 4 3 4 4 3 3 4 5 4 3 3 2 2 2 2 2 2 2 2 2 2 3 3 3 3 3 3 3 5 7 8 8 9 10 9 9
8 8 7 8 7 6 6 5 3 3 3 3 3 4 4 4 3 3 2 2 2 2 2 1 1 1 1 2 3 4 3 3 3 4 3 3 4 7 9 9 9 9 9
8 8 8 8 7 6 5 5 3 3 3 2 2 3 4 4 4 3 2 2 2 1 1 1 1 1 1 2 2 3 3 2 3 3 3 3 3 3 5 8 9 9 9
8 8 7 7 7 6 5 4 4 3 3 2 2 2 3 3 4 3 2 2 2 1 1 1 1 1 1 2 3 3 2 3 3 3 2 3 3 3 3 6 8 9 8
6 6 6 6 6 5 4 3 2 2 2 2 2 2 3 3 3 2 1 1 2 1 1 1 1 1 1 2 3 3 3 2 1 1 2 2 2 3 3 4 3 6 8
5 6 6 6 5 5 4 3 3 2 2 1 2 2 3 3 3 2 2 1 1 2 2 2 1 1 1 1 1 3 3 2 1 1 1 1 2 2 2 3 3 3 3
6 6 6 6 5 5 4 3 3 2 2 1 1 2 3 3 3 3 3 2 2 2 2 2 1 1 1 0 1 1 3 4 3 2 2 2 2 2 3 4 4 4 3
6 6 6 6 5 5 4 2 2 2 1 1 0 1 1 2 2 3 3 3 2 2 2 3 3 2 1 1 1 2 1 2 3 3 3 2 2 2 3 3 4 5 5
5 5 5 5 4 5 5 4 4 3 2 2 1 1 1 1 1 2 2 3 2 2 2 3 2 2 2 1 1 1 2 3 2 3 4 3 3 3 4 4 4 4 5
6 5 4 4 3 3 4 4 3 2 2 1 1 1 0 0 1 1 2 2 1 1 2 2 2 2 2 2 2 1 1 1 2 2 3 4 3 3 4 4 3 3 4
5 5 5 5 3 3 3 4 4 4 3 2 1 1 1 0 1 1 1 2 2 1 2 2 2 2 3 3 2 2 2 2 2 2 3 4 4 5 4 3 3 3 4
Wind_Direction
153 157 152 145 139 135 132 129 126 123 120 117 113 110 108 108 109 112 115 117 118 120 121 122 122 121 117 116 116 114 112 114 121 127 132 139 143 144 145 145 145 141 141
151 155 152 147 142 139 136 134 131 129 126 122 120 117 115 114 114 115 116 118 120 124 125 126 126 125 123 122 121 122 122 123 127 132 138 144 147 147 149 151 147 144 143
145 152 152 148 145 142 141 139 137 135 132 128 125 124 122 120 119 119 121 122 123 125 128 132 133 131 129 128 128 132 134 134 134 140 146 144 159 161 158 152 150 148 148
145 150 153 150 147 146 144 143 141 139 137 135 133 131 129 128 127 126 128 130 129 129 133 137 137 134 136 141 147 156 162 157 163 178 166 190 195 180 171 160 156 157 154
143 149 155 152 150 149 148 147 145 144 143 143 141 139 137 137 135 135 137 138 138 139 140 142 142 141 150 160 171 199 216 221 240 255 219 219 209 191 179 169 162 163 162
142 148 155 154 152 151 151 151 149 147 147 147 146 145 144 143 143 145 145 147 148 150 153 157 156 160 172 194 229 248 256 266 282 283 226 208 202 201 189 180 174 171 170
143 148 154 154 154 153 153 152 152 151 151 151 152 152 149 147 150 151 152 156 159 164 171 179 185 196 209 229 253 266 272 270 243 204 211 202 203 201 193 187 183 179 177
145 146 151 156 156 156 156 156 154 154 154 155 156 156 157 158 160 157 161 168 176 188 192 197 205 214 233 249 261 270 274 271 265 224 205 202 198 193 192 190 189 189 186
141 144 148 155 156 157 157 158 157 156 157 158 160 162 166 169 168 168 174 182 188 195 202 210 217 224 240 255 263 269 271 276 261 216 222 211 197 192 191 190 190 190 189
140 146 148 150 149 153 160 164 164 163 163 165 169 173 177 179 181 183 187 197 204 211 216 223 226 235 246 260 270 272 274 279 256 226 220 213 201 197 197 194 191 194 196
147 154 154 154 155 155 162 171 169 170 174 174 176 181 181 182 188 193 201 208 216 223 228 231 231 241 252 264 274 277 277 253 228 224 217 218 211 207 200 198 197 198 200
160 165 164 161 160 162 171 162 167 175 175 177 175 176 173 169 188 199 216 218 222 229 239 242 248 254 258 263 275 282 264 244 226 225 220 215 214 212 209 204 202 203 206
165 167 169 166 161 165 169 158 166 167 166 175 177 171 166 166 189 204 207 227 234 236 248 253 254 255 253 256 261 260 243 232 223 224 219 214 212 216 215 213 212 212 213
158 168 165 161 160 166 163 161 165 168 173 180 177 170 167 173 181 198 204 211 214 223 231 238 241 250 257 260 258 258 245 226 218 220 221 218 218 220 221 224 223 219 221
155 159 162 158 160 164 160 165 168 177 182 181 176 177 173 175 183 193 206 202 204 199 207 233 243 255 266 270 269 272 262 238 219 218 222 222 224 226 228 230 225 224 228
159 158 157 156 156 151 149 152 169 176 176 177 181 186 179 179 179 183 197 196 200 199 207 219 229 244 260 266 280 283 275 254 225 223 222 226 229 231 236 235 231 233 235
156 152 158 158 153 155 154 156 161 167 166 175 185 182 180 180 179 182 192 202 213 204 191 199 239 252 273 287 289 289 281 263 242 232 224 225 231 233 236 240 237 236 238
151 153 161 161 157 160 158 156 148 150 151 159 171 173 178 183 179 181 191 204 206 182 170 188 193 264 284 294 291 292 290 269 250 234 223 226 225 232 240 246 242 237 239
156 156 160 158 161 162 156 150 146 148 155 163 164 174 180 182 182 182 196 207 186 170 187 213 190 204 262 285 281 282 287 279 260 245 236 233 230 228 232 249 248 242 241
154 150 152 158 160 154 143 131 125 130 150 156 168 182 181 189 186 168 186 208 180 169 203 218 223 235 247 272 290 301 292 284 274 255 248 245 243 243 233 237 250 249 242
148 146 153 155 159 154 151 154 156 168 172 172 188 186 180 184 187 176 183 194 186 192 210 210 194 246 273 307 351 324 319 318 308 277 259 250 259 261 240 231 234 241 243
161 160 158 160 164 165 167 168 165 160 172 177 185 196 199 192 185 179 187 198 197 210 224 205 177 197 255 166 130 37 336 332 325 301 290 269 267 270 260 248 237 234 237
171 170 167 165 164 167 158 136 115 85 67 67 127 237 228 200 192 189 186 191 193 188 211 213 191 181 214 267 147 143 152 260 302 309 294 280 281 276 265 257 244 235 233
177 166 155 160 162 163 154 151 151 161 181 211 204 211 219 179 180 189 177 180 196 193 207 227 196 186 173 228 275 202 186 185 205 299 309 296 281 272 268 273 257 240 231
169 162 157 145 153 163 158 155 152 156 181 179 143 132 162 204 194 199 184 178 196 199 216 229 202 191 184 194 211 222 233 227 199 205 284 303 304 280 268 265 255 244 233
153 153 154 150 154 164 157 156 167 177 173 155 152 154 180 218 259 243 191 188 198 203 221 230 215 204 208 205 210 202 196 207 224 209 243 276 287 285 280 264 247 242 235